Volver al catálogo

STARLINK-1171

ActivoComunicacionesVLEO
NORAD 45062·PAYLOAD·🇺🇸 United States

Lanzado Jan 29, 2020 desde Cape Canaveral Space Force Station

Loading…

Próximos Pases (próximas 24 horas)

TLE

ActualizadoSource: CelesTrak SupGP

Época: Sep 14, 2026, 20:40 UTC

1 45062C 20006U   26257.86159722  .00256380  00000+0  58502-3 0  2570
2 45062  53.0299  24.9162 0005197 318.3423 258.3665 15.96540638    10

Sigue STARLINK-1171 en tiempo real con AllMySat

Download on the App Store